| time (UTC) | temp C | wind direction | speed KPH | gust KPH | rain 1hr cm | rain 24hr cm | rain mn cm | humidity % | barometer mb |
| 20260506140023 | 25 | 84 | 3.2 | 8.0 | 0.00 | 0.00 | 0.00 | 95 | 1006.1 |
| 20260506135516 | 25 | 78 | 3.2 | 6.4 | 0.00 | 0.00 | 0.00 | 95 | 1006.2 |
| 20260506135510 | 25 | 78 | 3.2 | 6.4 | 0.00 | 0.00 | 0.00 | 95 | 1006.2 |
| 20260506134509 | 25 | 78 | 3.2 | 6.4 | 0.00 | 0.00 | 0.00 | 95 | 1006.1 |
| 20260506134008 | 25 | 78 | 3.2 | 6.4 | 0.00 | 0.00 | 0.00 | 95 | 1006.2 |
| 20260506133507 | 25 | 78 | 1.6 | 6.4 | 0.00 | 0.00 | 0.00 | 95 | 1006.4 |
| 20260506133002 | 25 | 78 | 1.6 | 6.4 | 0.00 | 0.00 | 0.00 | 95 | 1006.3 |
| 20260506132503 | 25 | 78 | 3.2 | 6.4 | 0.00 | 0.00 | 0.00 | 95 | 1006.3 |
| 20260506132003 | 25 | 78 | 3.2 | 8.0 | 0.00 | 0.00 | 0.00 | 95 | 1006.3 |
| 20260506131459 | 25 | 78 | 3.2 | 8.0 | 0.00 | 0.00 | 0.00 | 95 | 1006.3 |
| 20260506130959 | 25 | 80 | 1.6 | 8.0 | 0.00 | 0.00 | 0.00 | 95 | 1006.3 |
| 20260506130457 | 25 | 80 | 3.2 | 8.0 | 0.00 | 0.00 | 0.00 | 95 | 1006.3 |
| 20260506130004 | 25 | 82 | 1.6 | 4.8 | 0.00 | 0.00 | 0.00 | 95 | 1006.1 |
| 20260506125957 | 25 | 81 | 1.6 | 4.8 | 0.00 | 0.00 | 0.00 | 95 | 1006.2 |
| 20260506125456 | 25 | 82 | 3.2 | 6.4 | 0.00 | 0.00 | 0.00 | 95 | 1006.1 |
| 20260506124956 | 25 | 81 | 3.2 | 6.4 | 0.00 | 0.00 | 0.00 | 95 | 1006.1 |
| 20260506123954 | 25 | 82 | 3.2 | 9.7 | 0.00 | 0.00 | 0.00 | 95 | 1006.1 |
| 20260506123450 | 25 | 82 | 3.2 | 9.7 | 0.00 | 0.00 | 0.00 | 95 | 1006.1 |
| 20260506122947 | 25 | 201 | 1.6 | 6.4 | 0.00 | 0.00 | 0.00 | 95 | 1006.0 |
| 20260506122450 | 25 | 126 | 1.6 | 6.4 | 0.00 | 0.00 | 0.00 | 95 | 1006.2 |
| 20260506121944 | 25 | 126 | 1.6 | 3.2 | 0.00 | 0.00 | 0.00 | 95 | 1006.2 |
| 20260506121445 | 25 | 126 | 1.6 | 4.8 | 0.00 | 0.00 | 0.00 | 95 | 1006.2 |
| 20260506120942 | 25 | 126 | 1.6 | 4.8 | 0.00 | 0.00 | 0.00 | 95 | 1006.0 |
| 20260506120440 | 25 | 126 | 1.6 | 4.8 | 0.00 | 0.00 | 0.00 | 95 | 1006.0 |
| 20260506115941 | 25 | 126 | 1.6 | 3.2 | 0.00 | 0.00 | 0.00 | 95 | 1006.1 |
| 20260506115441 | 25 | 126 | 1.6 | 4.8 | 0.00 | 0.00 | 0.00 | 95 | 1006.0 |
| 20260506114925 | 25 | 126 | 1.6 | 4.8 | 0.00 | 0.00 | 0.00 | 95 | 1006.0 |
| 20260506114422 | 25 | 126 | 1.6 | 4.8 | 0.00 | 0.00 | 0.00 | 95 | 1005.9 |
| 20260506113924 | 25 | 126 | 1.6 | 4.8 | 0.00 | 0.00 | 0.00 | 95 | 1006.0 |
| 20260506113422 | 25 | 126 | 1.6 | 4.8 | 0.00 | 0.00 | 0.00 | 95 | 1005.8 |
| 20260506112911 | 25 | 126 | 1.6 | 6.4 | 0.00 | 0.00 | 0.00 | 95 | 1005.7 |
| 20260506112408 | 25 | 126 | 1.6 | 6.4 | 0.00 | 0.00 | 0.00 | 95 | 1005.7 |
| 20260506111907 | 25 | 126 | 1.6 | 4.8 | 0.00 | 0.00 | 0.00 | 95 | 1005.6 |
| 20260506111408 | 25 | 126 | 1.6 | 4.8 | 0.00 | 0.00 | 0.00 | 95 | 1005.6 |
| 20260506110904 | 25 | 126 | 1.6 | 8.0 | 0.00 | 0.00 | 0.00 | 95 | 1005.6 |
| 20260506110405 | 25 | 126 | 1.6 | 8.0 | 0.00 | 0.00 | 0.00 | 95 | 1005.6 |
| 20260506105904 | 25 | 129 | 1.6 | 6.4 | 0.00 | 0.00 | 0.00 | 95 | 1005.6 |
| 20260506105403 | 25 | 128 | 1.6 | 8.0 | 0.00 | 0.00 | 0.00 | 95 | 1005.6 |
| 20260506104903 | 25 | 128 | 1.6 | 8.0 | 0.00 | 0.00 | 0.00 | 95 | 1005.6 |
| 20260506104404 | 25 | 129 | 1.6 | 4.8 | 0.00 | 0.00 | 0.00 | 95 | 1005.6 |
| 20260506103904 | 25 | 128 | 1.6 | 6.4 | 0.00 | 0.00 | 0.00 | 95 | 1005.5 |
| 20260506103402 | 25 | 128 | 1.6 | 6.4 | 0.00 | 0.00 | 0.00 | 95 | 1005.5 |
| 20260506102903 | 25 | 128 | 1.6 | 6.4 | 0.00 | 0.00 | 0.00 | 95 | 1005.6 |
| 20260506102403 | 25 | 128 | 1.6 | 6.4 | 0.00 | 0.00 | 0.00 | 94 | 1005.7 |
| 20260506101902 | 25 | 128 | 1.6 | 3.2 | 0.00 | 0.00 | 0.00 | 94 | 1005.7 |
| 20260506101403 | 25 | 128 | 1.6 | 3.2 | 0.00 | 0.00 | 0.00 | 94 | 1005.6 |
| 20260506100901 | 25 | 128 | 1.6 | 4.8 | 0.00 | 0.00 | 0.00 | 94 | 1005.5 |
| 20260506100404 | 25 | 128 | 1.6 | 4.8 | 0.00 | 0.00 | 0.00 | 94 | 1005.5 |
| 20260506100400 | 25 | 128 | 1.6 | 4.8 | 0.00 | 0.00 | 0.00 | 94 | 1005.6 |
| 20260506095401 | 25 | 128 | 1.6 | 4.8 | 0.00 | 0.00 | 0.00 | 94 | 1005.6 |
| 20260506094854 | 25 | 128 | 1.6 | 4.8 | 0.00 | 0.00 | 0.00 | 94 | 1005.6 |
| 20260506094351 | 25 | 128 | 1.6 | 4.8 | 0.00 | 0.00 | 0.00 | 94 | 1005.4 |
| 20260506093845 | 25 | 128 | 1.6 | 6.4 | 0.00 | 0.00 | 0.00 | 94 | 1005.5 |
| 20260506093345 | 25 | 128 | 1.6 | 6.4 | 0.00 | 0.00 | 0.00 | 94 | 1005.5 |
| 20260506093340 | 25 | 128 | 1.6 | 4.8 | 0.00 | 0.00 | 0.00 | 94 | 1005.5 |
| 20260506092338 | 25 | 128 | 1.6 | 4.8 | 0.00 | 0.00 | 0.00 | 94 | 1005.6 |
| 20260506091838 | 25 | 128 | 1.6 | 4.8 | 0.00 | 0.00 | 0.00 | 94 | 1005.6 |
| 20260506091801 | 25 | 128 | 1.6 | 4.8 | 0.00 | 0.00 | 0.00 | 94 | 1005.7 |
| 20260506091405 | 25 | 128 | 0.0 | 4.8 | 0.00 | 0.00 | 0.00 | 94 | 1005.6 |
| 20260506090231 | 25 | 128 | 1.6 | 4.8 | 0.00 | 0.00 | 0.00 | 94 | 1005.6 |
| 20260506085731 | 25 | 128 | 1.6 | 4.8 | 0.00 | 0.00 | 0.00 | 94 | 1005.4 |
| 20260506085211 | 25 | 128 | 1.6 | 4.8 | 0.00 | 0.00 | 0.00 | 93 | 1005.2 |
| 20260506084714 | 25 | 129 | 1.6 | 4.8 | 0.00 | 0.00 | 0.00 | 93 | 1005.6 |
| 20260506084710 | 25 | 129 | 1.6 | 4.8 | 0.00 | 0.00 | 0.00 | 93 | 1005.5 |
| 20260506083709 | 25 | 128 | 1.6 | 6.4 | 0.00 | 0.00 | 0.00 | 93 | 1005.5 |
| 20260506083209 | 25 | 128 | 1.6 | 6.4 | 0.00 | 0.00 | 0.00 | 93 | 1005.4 |
| 20260506082704 | 25 | 126 | 1.6 | 6.4 | 0.00 | 0.00 | 0.00 | 93 | 1005.5 |
| 20260506082200 | 25 | 126 | 1.6 | 8.0 | 0.00 | 0.00 | 0.00 | 93 | 1005.4 |
| 20260506081703 | 25 | 121 | 1.6 | 4.8 | 0.00 | 0.00 | 0.00 | 93 | 1005.5 |
| 20260506081659 | 25 | 121 | 1.6 | 8.0 | 0.00 | 0.00 | 0.00 | 93 | 1005.5 |
| 20260506080657 | 25 | 121 | 1.6 | 4.8 | 0.00 | 0.00 | 0.00 | 92 | 1005.6 |
| 20260506080156 | 25 | 121 | 1.6 | 8.0 | 0.00 | 0.00 | 0.00 | 92 | 1005.7 |
| 20260506073129 | 25 | 115 | 1.6 | 6.4 | 0.00 | 0.00 | 0.00 | 92 | 1005.8 |
| 20260506072621 | 25 | 111 | 1.6 | 6.4 | 0.00 | 0.00 | 0.00 | 92 | 1005.9 |
| 20260506072115 | 25 | 109 | 3.2 | 6.4 | 0.00 | 0.00 | 0.00 | 92 | 1005.9 |
| 20260506071609 | 25 | 152 | 3.2 | 6.4 | 0.00 | 0.00 | 0.00 | 92 | 1006.0 |
| 20260506071107 | 25 | 153 | 3.2 | 8.0 | 0.00 | 0.00 | 0.00 | 92 | 1006.0 |
| 20260506070610 | 25 | 111 | 3.2 | 8.0 | 0.00 | 0.00 | 0.00 | 92 | 1006.2 |
| 20260506070109 | 25 | 107 | 3.2 | 8.0 | 0.00 | 0.00 | 0.00 | 92 | 1006.1 |
| 20260506062053 | 25 | 165 | 3.2 | 8.0 | 0.00 | 0.00 | 0.00 | 92 | 1006.5 |
| 20260506061709 | 25 | 165 | 3.2 | 11.3 | 0.00 | 0.00 | 0.00 | 92 | 1006.7 |
| 20260506061051 | 25 | 165 | 1.6 | 4.8 | 0.00 | 0.00 | 0.00 | 92 | 1006.6 |
| 20260506051024 | 26 | 205 | 4.8 | 17.7 | 0.00 | 0.00 | 0.00 | 91 | 1006.4 |
| 20260506050525 | 26 | 151 | 6.4 | 17.7 | 0.00 | 0.00 | 0.00 | 91 | 1006.3 |
| 20260506045017 | 26 | 178 | 4.8 | 17.7 | 0.00 | 0.00 | 0.00 | 91 | 1006.1 |
| 20260506044517 | 26 | 119 | 4.8 | 17.7 | 0.00 | 0.00 | 0.00 | 91 | 1006.2 |
| 20260506044024 | 26 | 164 | 4.8 | 12.9 | 0.00 | 0.00 | 0.00 | 91 | 1006.1 |
| 20260506044018 | 26 | 163 | 4.8 | 16.1 | 0.00 | 0.00 | 0.00 | 91 | 1006.2 |
| 20260506043013 | 26 | 140 | 3.2 | 9.7 | 0.00 | 0.00 | 0.00 | 91 | 1006.0 |
| 20260506042515 | 26 | 146 | 4.8 | 14.5 | 0.00 | 0.00 | 0.00 | 91 | 1005.9 |
| 20260506042511 | 26 | 173 | 4.8 | 14.5 | 0.00 | 0.00 | 0.00 | 91 | 1005.9 |
| 20260506042129 | 26 | 135 | 3.2 | 11.3 | 0.00 | 0.00 | 0.00 | 91 | 1005.9 |
| 20260506041511 | 26 | 124 | 3.2 | 11.3 | 0.00 | 0.00 | 0.00 | 91 | 1005.8 |
| 20260506041005 | 26 | 142 | 3.2 | 8.0 | 0.00 | 0.00 | 0.00 | 91 | 1006.0 |
| 20260506040002 | 26 | 156 | 4.8 | 11.3 | 0.00 | 0.00 | 0.00 | 91 | 1005.8 |
| 20260506035504 | 26 | 184 | 4.8 | 14.5 | 0.00 | 0.00 | 0.00 | 91 | 1005.8 |
| 20260506035003 | 26 | 142 | 4.8 | 14.5 | 0.00 | 0.00 | 0.00 | 91 | 1005.9 |
| 20260506034503 | 26 | 179 | 4.8 | 12.9 | 0.00 | 0.00 | 0.00 | 91 | 1005.7 |
| 20260506034003 | 26 | 158 | 4.8 | 11.3 | 0.00 | 0.00 | 0.00 | 91 | 1005.6 |
| 20260506033458 | 26 | 140 | 4.8 | 11.3 | 0.00 | 0.00 | 0.00 | 91 | 1005.7 |
| 20260506032958 | 26 | 147 | 4.8 | 11.3 | 0.00 | 0.00 | 0.00 | 91 | 1005.7 |
| 20260506032501 | 26 | 150 | 4.8 | 14.5 | 0.00 | 0.00 | 0.00 | 91 | 1005.6 |
| 20260506032000 | 26 | 158 | 4.8 | 14.5 | 0.00 | 0.00 | 0.00 | 91 | 1005.6 |
| 20260506031458 | 26 | 166 | 4.8 | 11.3 | 0.00 | 0.00 | 0.00 | 91 | 1005.7 |
| 20260506030959 | 26 | 136 | 4.8 | 14.5 | 0.00 | 0.00 | 0.00 | 91 | 1005.7 |
| 20260506030446 | 26 | 147 | 4.8 | 16.1 | 0.00 | 0.00 | 0.00 | 91 | 1005.6 |
| 20260506025947 | 26 | 171 | 4.8 | 16.1 | 0.00 | 0.00 | 0.00 | 91 | 1005.6 |
| 20260506025444 | 26 | 151 | 4.8 | 11.3 | 0.00 | 0.00 | 0.00 | 91 | 1005.6 |
| 20260506024943 | 26 | 140 | 4.8 | 11.3 | 0.00 | 0.00 | 0.00 | 91 | 1005.4 |
| 20260506024439 | 26 | 126 | 4.8 | 12.9 | 0.00 | 0.00 | 0.00 | 91 | 1005.2 |
| 20260506023944 | 26 | 168 | 4.8 | 16.1 | 0.00 | 0.00 | 0.00 | 91 | 1005.2 |
| 20260506023939 | 26 | 81 | 4.8 | 12.9 | 0.00 | 0.00 | 0.00 | 91 | 1005.3 |
| 20260506022936 | 26 | 172 | 4.8 | 16.1 | 0.00 | 0.00 | 0.00 | 91 | 1005.0 |
| 20260506022441 | 26 | 169 | 4.8 | 19.3 | 0.00 | 0.00 | 0.00 | 90 | 1004.9 |
| 20260506022437 | 26 | 169 | 3.2 | 19.3 | 0.00 | 0.00 | 0.00 | 90 | 1005.0 |
| 20260506021436 | 26 | 136 | 3.2 | 9.7 | 0.00 | 0.00 | 0.00 | 90 | 1004.9 |
| 20260506021430 | 26 | 177 | 3.2 | 14.5 | 0.00 | 0.00 | 0.00 | 90 | 1004.9 |
| 20260506021044 | 26 | 119 | 4.8 | 14.5 | 0.00 | 0.00 | 0.00 | 90 | 1004.9 |
| 20260506015929 | 26 | 161 | 4.8 | 17.7 | 0.00 | 0.00 | 0.00 | 90 | 1004.7 |
| 20260506015429 | 26 | 171 | 4.8 | 17.7 | 0.00 | 0.00 | 0.00 | 90 | 1004.8 |
| 20260506014928 | 26 | 134 | 4.8 | 14.5 | 0.00 | 0.00 | 0.00 | 90 | 1004.6 |
| 20260506014429 | 26 | 161 | 6.4 | 17.7 | 0.00 | 0.00 | 0.00 | 90 | 1004.6 |
| 20260506013922 | 26 | 161 | 6.4 | 17.7 | 0.00 | 0.00 | 0.00 | 89 | 1004.5 |
| 20260506013428 | 26 | 173 | 8.0 | 19.3 | 0.00 | 0.00 | 0.00 | 89 | 1004.5 |
| 20260506013423 | 26 | 202 | 6.4 | 17.7 | 0.00 | 0.00 | 0.00 | 89 | 1004.5 |
| 20260506013042 | 26 | 116 | 6.4 | 17.7 | 0.00 | 0.00 | 0.00 | 89 | 1004.4 |
| 20260506012423 | 26 | 182 | 8.0 | 19.3 | 0.00 | 0.00 | 0.00 | 89 | 1004.5 |
| 20260506011425 | 26 | 169 | 6.4 | 20.9 | 0.00 | 0.00 | 0.00 | 89 | 1004.3 |
| 20260506011418 | 26 | 182 | 8.0 | 20.9 | 0.00 | 0.00 | 0.00 | 89 | 1004.4 |
| 20260506010418 | 26 | 151 | 4.8 | 14.5 | 0.00 | 0.00 | 0.00 | 89 | 1004.2 |
| 20260506005924 | 26 | 123 | 4.8 | 14.5 | 0.00 | 0.00 | 0.00 | 89 | 1004.1 |
| 20260506005919 | 26 | 167 | 4.8 | 11.3 | 0.00 | 0.00 | 0.00 | 89 | 1004.2 |
| 20260506004912 | 26 | 174 | 6.4 | 16.1 | 0.00 | 0.00 | 0.00 | 88 | 1004.2 |
| 20260506004419 | 26 | 202 | 6.4 | 17.7 | 0.00 | 0.00 | 0.00 | 88 | 1003.9 |
| 20260506004413 | 26 | 175 | 4.8 | 16.1 | 0.00 | 0.00 | 0.00 | 88 | 1004.1 |
| 20260506004028 | 26 | 155 | 4.8 | 16.1 | 0.00 | 0.00 | 0.00 | 88 | 1003.8 |
| 20260506003906 | 26 | 171 | 6.4 | 17.7 | 0.00 | 0.00 | 0.00 | 88 | 1003.8 |
| 20260506002406 | 27 | 134 | 6.4 | 16.1 | 0.00 | 0.00 | 0.00 | 87 | 1003.9 |
| 20260506001901 | 27 | 78 | 6.4 | 20.9 | 0.00 | 0.00 | 0.00 | 87 | 1003.9 |
| 20260506001401 | 27 | 159 | 4.8 | 20.9 | 0.00 | 0.00 | 0.00 | 87 | 1003.8 |
| 20260506000902 | 27 | 168 | 4.8 | 14.5 | 0.00 | 0.00 | 0.00 | 87 | 1003.8 |
| 20260506000402 | 27 | 123 | 6.4 | 22.5 | 0.00 | 0.00 | 0.00 | 87 | 1003.7 |
| 20260505235906 | 27 | 119 | 8.0 | 20.9 | 0.00 | 0.00 | 0.00 | 87 | 1003.7 |
| 20260505235902 | 27 | 123 | 8.0 | 22.5 | 0.00 | 0.00 | 0.00 | 87 | 1003.6 |
| 20260505234859 | 27 | 143 | 8.0 | 20.9 | 0.00 | 0.00 | 0.00 | 87 | 1003.7 |
| 20260505234401 | 27 | 171 | 8.0 | 19.3 | 0.00 | 0.00 | 0.00 | 87 | 1003.7 |
| 20260505233902 | 27 | 53 | 8.0 | 22.5 | 0.00 | 0.00 | 0.00 | 87 | 1003.6 |
| 20260505233400 | 27 | 130 | 8.0 | 22.5 | 0.00 | 0.00 | 0.00 | 86 | 1003.7 |
| 20260505232859 | 27 | 108 | 6.4 | 20.9 | 0.00 | 0.00 | 0.00 | 86 | 1003.8 |
| 20260505232400 | 27 | 180 | 4.8 | 16.1 | 0.00 | 0.00 | 0.00 | 86 | 1003.8 |
| 20260505232355 | 27 | 163 | 4.8 | 12.9 | 0.00 | 0.00 | 0.00 | 86 | 1003.8 |
| 20260505231355 | 27 | 161 | 6.4 | 16.1 | 0.00 | 0.00 | 0.00 | 87 | 1003.7 |
| 20260505230853 | 27 | 167 | 6.4 | 16.1 | 0.00 | 0.00 | 0.00 | 87 | 1003.8 |
| 20260505230355 | 27 | 157 | 4.8 | 14.5 | 0.00 | 0.00 | 0.00 | 86 | 1003.8 |
| 20260505225855 | 27 | 162 | 6.4 | 20.9 | 0.00 | 0.00 | 0.00 | 86 | 1003.7 |
| 20260505225850 | 27 | 179 | 6.4 | 16.1 | 0.00 | 0.00 | 0.00 | 87 | 1003.9 |
| 20260505224851 | 27 | 93 | 6.4 | 20.9 | 0.00 | 0.00 | 0.00 | 86 | 1004.0 |
| 20260505224349 | 27 | 153 | 6.4 | 19.3 | 0.00 | 0.00 | 0.00 | 86 | 1004.1 |
| 20260505223851 | 27 | 197 | 6.4 | 19.3 | 0.00 | 0.00 | 0.00 | 86 | 1004.2 |
| 20260505223351 | 27 | 153 | 6.4 | 16.1 | 0.00 | 0.00 | 0.00 | 86 | 1004.3 |
| 20260505222849 | 27 | 158 | 6.4 | 16.1 | 0.00 | 0.00 | 0.00 | 86 | 1004.2 |
| 20260505222344 | 27 | 109 | 6.4 | 16.1 | 0.00 | 0.00 | 0.00 | 85 | 1004.3 |
| 20260505221846 | 28 | 146 | 6.4 | 14.5 | 0.00 | 0.00 | 0.00 | 85 | 1004.2 |
| 20260505221346 | 28 | 86 | 6.4 | 17.7 | 0.00 | 0.00 | 0.00 | 85 | 1004.3 |
| 20260505220848 | 28 | 128 | 6.4 | 17.7 | 0.00 | 0.00 | 0.00 | 85 | 1004.3 |
| 20260505220843 | 28 | 163 | 6.4 | 17.7 | 0.00 | 0.00 | 0.00 | 85 | 1004.2 |
| 20260505220502 | 28 | 192 | 6.4 | 17.7 | 0.00 | 0.00 | 0.00 | 84 | 1004.3 |
| 20260505215344 | 28 | 146 | 4.8 | 20.9 | 0.00 | 0.00 | 0.00 | 84 | 1004.3 |
| 20260505214844 | 28 | 111 | 6.4 | 20.9 | 0.00 | 0.00 | 0.00 | 84 | 1004.3 |
| 20260505214346 | 28 | 84 | 6.4 | 20.9 | 0.00 | 0.00 | 0.00 | 84 | 1004.3 |
| 20260505214340 | 28 | 105 | 6.4 | 19.3 | 0.00 | 0.00 | 0.00 | 84 | 1004.3 |
| 20260505213338 | 28 | 148 | 6.4 | 19.3 | 0.00 | 0.00 | 0.00 | 84 | 1004.3 |
| 20260505212839 | 28 | 166 | 6.4 | 17.7 | 0.00 | 0.00 | 0.00 | 84 | 1004.5 |
| 20260505212337 | 28 | 144 | 6.4 | 20.9 | 0.00 | 0.00 | 0.00 | 84 | 1004.5 |
| 20260505211834 | 28 | 171 | 4.8 | 20.9 | 0.00 | 0.00 | 0.00 | 83 | 1004.6 |
| 20260505211335 | 28 | 108 | 4.8 | 17.7 | 0.00 | 0.00 | 0.00 | 83 | 1004.6 |
| 20260505210831 | 28 | 181 | 6.4 | 19.3 | 0.00 | 0.00 | 0.00 | 84 | 1004.7 |
| 20260505210827 | 28 | 171 | 4.8 | 19.3 | 0.00 | 0.00 | 0.00 | 84 | 1004.7 |
| 20260505205825 | 28 | 74 | 6.4 | 14.5 | 0.00 | 0.00 | 0.00 | 84 | 1004.8 |
| 20260505205327 | 28 | 76 | 6.4 | 16.1 | 0.00 | 0.00 | 0.00 | 84 | 1004.8 |
| 20260505204826 | 28 | 129 | 6.4 | 17.7 | 0.00 | 0.00 | 0.00 | 83 | 1004.8 |
| 20260505204326 | 28 | 100 | 6.4 | 17.7 | 0.00 | 0.00 | 0.00 | 83 | 1004.8 |
| 20260505203827 | 28 | 88 | 6.4 | 20.9 | 0.00 | 0.00 | 0.00 | 83 | 1004.8 |
| 20260505203324 | 29 | 98 | 4.8 | 20.9 | 0.00 | 0.00 | 0.00 | 82 | 1005.0 |
| 20260505202825 | 29 | 101 | 4.8 | 17.7 | 0.00 | 0.00 | 0.00 | 83 | 1005.1 |
| 20260505202325 | 28 | 78 | 6.4 | 17.7 | 0.00 | 0.00 | 0.00 | 83 | 1005.0 |
| 20260505201825 | 28 | 61 | 6.4 | 14.5 | 0.00 | 0.00 | 0.00 | 83 | 1005.1 |
| 20260505201324 | 28 | 84 | 4.8 | 14.5 | 0.00 | 0.00 | 0.00 | 83 | 1005.3 |
| 20260505200817 | 29 | 157 | 4.8 | 16.1 | 0.00 | 0.00 | 0.00 | 82 | 1005.3 |
| 20260505200317 | 29 | 121 | 6.4 | 19.3 | 0.00 | 0.00 | 0.00 | 81 | 1005.4 |
| 20260505195817 | 29 | 103 | 6.4 | 19.3 | 0.00 | 0.00 | 0.00 | 79 | 1005.4 |
| 20260505195316 | 29 | 120 | 6.4 | 19.3 | 0.00 | 0.00 | 0.00 | 79 | 1005.5 |
| 20260505194820 | 28 | 150 | 8.0 | 20.9 | 0.00 | 0.00 | 0.00 | 80 | 1005.5 |
| 20260505194814 | 29 | 199 | 6.4 | 20.9 | 0.00 | 0.00 | 0.00 | 79 | 1005.4 |
| 20260505193813 | 28 | 167 | 8.0 | 17.7 | 0.00 | 0.00 | 0.00 | 80 | 1005.5 |
| 20260505193315 | 28 | 184 | 8.0 | 20.9 | 0.00 | 0.00 | 0.00 | 81 | 1005.6 |
| 20260505192814 | 28 | 171 | 8.0 | 27.4 | 0.00 | 0.00 | 0.00 | 81 | 1005.8 |
| 20260505192313 | 28 | 80 | 8.0 | 27.4 | 0.00 | 0.00 | 0.00 | 81 | 1005.8 |
| 20260505191815 | 28 | 190 | 8.0 | 20.9 | 0.00 | 0.00 | 0.00 | 81 | 1005.7 |
| 20260505191311 | 28 | 229 | 8.0 | 20.9 | 0.00 | 0.00 | 0.00 | 82 | 1005.8 |
| 20260505190811 | 28 | 173 | 8.0 | 20.9 | 0.00 | 0.00 | 0.00 | 82 | 1005.8 |
| 20260505190313 | 28 | 214 | 6.4 | 19.3 | 0.00 | 0.00 | 0.00 | 82 | 1005.9 |
| 20260505185814 | 28 | 152 | 6.4 | 19.3 | 0.00 | 0.00 | 0.00 | 82 | 1006.0 |
| 20260505185808 | 28 | 115 | 6.4 | 19.3 | 0.00 | 0.00 | 0.00 | 82 | 1005.9 |
| 20260505185429 | 28 | 115 | 6.4 | 17.7 | 0.00 | 0.00 | 0.00 | 82 | 1006.1 |
| 20260505184315 | 28 | 144 | 8.0 | 20.9 | 0.00 | 0.00 | 0.00 | 81 | 1006.3 |
| 20260505184310 | 28 | 146 | 6.4 | 17.7 | 0.00 | 0.00 | 0.00 | 82 | 1006.2 |
| 20260505183808 | 28 | 156 | 8.0 | 20.9 | 0.00 | 0.00 | 0.00 | 82 | 1006.2 |
| 20260505182806 | 28 | 194 | 9.7 | 25.7 | 0.00 | 0.00 | 0.00 | 82 | 1006.3 |
| 20260505182307 | 28 | 160 | 9.7 | 25.7 | 0.00 | 0.00 | 0.00 | 81 | 1006.3 |
| 20260505181811 | 28 | 205 | 6.4 | 20.9 | 0.00 | 0.00 | 0.00 | 82 | 1006.3 |
| 20260505181806 | 28 | 196 | 6.4 | 20.9 | 0.00 | 0.00 | 0.00 | 82 | 1006.3 |
| 20260505180802 | 28 | 182 | 6.4 | 14.5 | 0.00 | 0.00 | 0.00 | 83 | 1006.3 |
| 20260505180309 | 27 | 182 | 6.4 | 19.3 | 0.00 | 0.00 | 0.00 | 84 | 1006.4 |
| 20260505180303 | 28 | 202 | 6.4 | 17.7 | 0.00 | 0.00 | 0.00 | 84 | 1006.4 |
| 20260505175259 | 27 | 217 | 6.4 | 19.3 | 0.00 | 0.00 | 0.00 | 85 | 1006.5 |
| 20260505174801 | 27 | 156 | 4.8 | 17.7 | 0.00 | 0.00 | 0.00 | 85 | 1006.5 |
| 20260505174300 | 27 | 165 | 8.0 | 17.7 | 0.00 | 0.00 | 0.00 | 85 | 1006.5 |
| 20260505173804 | 26 | 150 | 4.8 | 14.5 | 0.00 | 0.00 | 0.00 | 88 | 1006.6 |
| 20260505173759 | 27 | 136 | 8.0 | 19.3 | 0.00 | 0.00 | 0.00 | 85 | 1006.5 |
| 20260505173258 | 27 | 187 | 6.4 | 19.3 | 0.00 | 0.00 | 0.00 | 86 | 1006.5 |
| 20260505172301 | 26 | 191 | 3.2 | 14.5 | 0.00 | 0.00 | 0.00 | 88 | 1006.8 |
| 20260505171759 | 26 | 207 | 3.2 | 8.0 | 0.00 | 0.00 | 0.00 | 88 | 1006.8 |
| 20260505171259 | 26 | 165 | 3.2 | 8.0 | 0.00 | 0.00 | 0.00 | 88 | 1006.8 |
| 20260505170758 | 26 | 123 | 4.8 | 11.3 | 0.00 | 0.00 | 0.00 | 88 | 1006.8 |
| 20260505170258 | 26 | 197 | 4.8 | 11.3 | 0.00 | 0.00 | 0.00 | 88 | 1006.8 |
| 20260505165800 | 26 | 194 | 3.2 | 9.7 | 0.00 | 0.00 | 0.00 | 90 | 1006.8 |
| 20260505165245 | 26 | 213 | 3.2 | 11.3 | 0.00 | 0.00 | 0.00 | 90 | 1006.8 |
| 20260505164747 | 26 | 173 | 4.8 | 14.5 | 0.00 | 0.00 | 0.00 | 89 | 1006.8 |
| 20260505164244 | 26 | 207 | 4.8 | 14.5 | 0.00 | 0.00 | 0.00 | 90 | 1006.9 |
| 20260505163743 | 26 | 200 | 4.8 | 14.5 | 0.00 | 0.00 | 0.00 | 91 | 1006.9 |
| 20260505163247 | 25 | 197 | 6.4 | 11.3 | 0.00 | 0.00 | 0.00 | 93 | 1006.8 |
| 20260505163242 | 26 | 202 | 4.8 | 14.5 | 0.00 | 0.00 | 0.00 | 91 | 1006.9 |
| 20260505162846 | 26 | 213 | 4.8 | 11.3 | 0.00 | 0.00 | 0.00 | 93 | 1006.8 |
| 20260505161740 | 25 | 207 | 4.8 | 9.7 | 0.00 | 0.00 | 0.00 | 93 | 1006.9 |
| 20260505161238 | 25 | 221 | 3.2 | 9.7 | 0.00 | 0.00 | 0.00 | 93 | 1006.9 |
| 20260505160739 | 25 | 193 | 3.2 | 9.7 | 0.00 | 0.00 | 0.00 | 93 | 1006.9 |
| 20260505160231 | 25 | 208 | 3.2 | 11.3 | 0.00 | 0.00 | 0.00 | 93 | 1006.8 |
| 20260505153220 | 25 | 205 | 4.8 | 16.1 | 0.00 | 0.00 | 0.00 | 92 | 1006.8 |
| 20260505153215 | 25 | 229 | 4.8 | 16.1 | 0.00 | 0.00 | 0.00 | 92 | 1006.7 |
| 20260505152212 | 25 | 186 | 3.2 | 8.0 | 0.00 | 0.00 | 0.00 | 92 | 1006.7 |
| 20260505151713 | 25 | 197 | 4.8 | 9.7 | 0.00 | 0.00 | 0.00 | 92 | 1006.7 |
| 20260505151211 | 25 | 214 | 4.8 | 14.5 | 0.00 | 0.00 | 0.00 | 92 | 1006.7 |
| 20260505150710 | 25 | 194 | 4.8 | 16.1 | 0.00 | 0.00 | 0.00 | 92 | 1006.8 |
| 20260505150208 | 25 | 165 | 3.2 | 16.1 | 0.00 | 0.00 | 0.00 | 92 | 1006.8 |
| 20260505140628 | 24 | 190 | 3.2 | 9.7 | 0.00 | 0.00 | 0.00 | 93 | 1006.7 |